Temperature
17 17 17 16 16 16 15 15 15 15 14 14 14 14 13 13 13 13 13 12 12 12 12 12 12 12 12 12 12 12 12 12 12 12 12 13 13 13 13 13 13 13 14
17 17 16 16 16 15 15 15 15 14 14 14 14 13 13 13 13 12 12 12 12 12 12 12 12 12 12 12 12 12 12 12 12 12 12 12 12 12 12 13 13 13 13
17 16 16 16 15 15 15 15 14 14 14 14 13 13 13 12 12 12 12 12 12 12 12 12 11 11 11 11 11 11 11 11 11 11 11 12 12 12 12 12 12 13 13
17 16 16 16 15 15 15 14 14 14 13 13 13 13 13 12 12 12 12 12 12 11 11 11 11 11 11 11 11 11 11 11 11 11 11 11 11 11 11 12 12 12 12
16 16 16 15 15 15 14 14 14 13 13 13 13 13 12 12 12 12 12 12 11 11 11 11 11 11 11 11 11 11 11 11 11 11 11 11 11 11 11 11 11 11 12
16 16 16 15 15 15 14 14 13 13 13 13 12 12 12 12 12 12 12 11 11 11 11 11 11 11 11 11 11 10 10 10 10 10 10 10 10 10 10 11 11 11 11
16 16 15 15 15 15 14 14 13 13 13 12 12 12 12 12 12 11 11 11 11 11 11 10 10 10 10 10 10 10 10 10 10 10 10 10 10 10 10 10 10 10 10
16 15 15 15 15 14 14 14 13 13 12 12 12 12 12 11 11 11 11 11 11 11 10 10 10 10 10 10 10 10 10 10 10 10 10 10 10 10 10 10 10 10 10
16 15 15 15 15 14 14 14 13 13 12 12 12 12 11 11 11 11 11 11 10 10 10 10 10 10 10 10 10 10 10 10 9 9 9 9 9 9 9 9 9 9 9
16 15 15 15 15 14 14 13 13 12 12 12 12 11 11 11 11 11 10 10 10 10 10 10 10 10 10 9 9 9 9 9 9 9 9 9 9 9 9 9 9 9 9
16 15 15 14 14 14 13 13 13 12 12 12 11 11 11 11 11 10 10 10 10 10 9 9 9 9 9 9 9 9 9 9 8 8 9 9 9 9 9 9 9 9 9
15 15 14 14 14 13 13 13 12 12 12 11 11 11 11 10 10 10 10 10 9 9 9 9 9 9 9 9 9 9 8 8 8 8 8 8 8 8 8 8 8 8 8
15 15 14 14 13 13 13 12 12 12 11 11 11 10 10 10 10 10 10 9 9 9 9 9 8 8 8 8 8 8 8 8 8 8 8 8 8 8 8 8 8 8 8
15 14 14 13 13 12 12 12 12 12 11 11 10 10 10 10 10 9 9 9 9 9 8 8 8 8 8 8 8 8 8 8 8 8 8 8 8 7 7 7 7 7 7
14 14 13 13 12 12 12 12 12 12 11 11 11 10 10 10 10 9 9 9 9 9 8 8 8 8 7 7 7 7 7 7 7 7 7 7 7 7 7 7 7 7 7
14 13 13 13 12 12 12 12 11 11 11 11 11 10 10 10 10 9 9 9 9 8 8 8 8 7 7 7 7 7 7 7 7 7 7 7 7 7 6 6 6 6 6
13 13 13 12 12 12 11 11 11 11 11 10 10 10 10 10 9 9 9 8 8 8 7 7 7 7 7 7 6 6 6 6 6 6 6 6 6 6 6 6 6 6 6
13 12 12 12 12 11 11 11 11 10 10 10 10 10 10 9 9 9 8 8 8 8 7 7 7 7 7 6 6 6 6 6 6 6 6 6 6 6 6 6 5 5 5
12 12 12 12 11 11 11 10 10 10 10 10 10 10 10 9 9 9 8 8 8 7 7 7 7 7 6 6 6 6 6 6 6 6 5 5 5 5 5 5 5 5 5
12 11 11 11 11 11 10 10 10 10 10 10 9 9 9 9 9 8 8 8 7 7 7 7 6 6 6 6 6 5 5 5 5 5 5 5 5 5 5 5 5 4 5
11 11 11 11 10 10 10 10 10 9 9 9 9 9 9 8 8 8 8 8 7 7 7 7 6 6 6 6 5 5 5 5 5 5 4 4 4 4 4 4 4 4 4
10 10 10 10 10 10 10 9 9 9 9 9 9 9 8 8 8 8 7 7 7 7 6 6 6 6 5 5 5 5 5 4 4 4 4 4 4 4 4 4 4 4 3
10 9 9 9 9 9 9 9 9 9 8 8 8 8 8 8 7 7 7 7 6 6 6 6 5 5 5 5 4 4 4 4 4 4 3 3 3 3 3 3 3 3 3
9 9 8 8 8 8 8 8 8 8 8 8 8 7 7 7 7 7 6 6 6 6 5 5 5 4 4 4 4 4 3 3 3 3 3 3 3 3 2 2 2 2 2
8 7 7 7 8 8 7 7 7 7 7 7 7 7 6 6 6 6 6 5 5 5 5 4 4 4 4 3 3 3 3 3 3 2 2 2 2 2 2 2 2 2 2
7 7 7 7 7 7 7 6 6 6 6 6 6 6 5 5 5 5 5 5 4 4 4 4 3 3 3 3 3 2 2 2 2 2 2 2 2 2 2 1 1 1 1
Wind_Speed
5 4 5 3 3 3 2 2 1 1 1 2 2 3 3 3 3 3 3 4 4 5 4 3 3 4 3 4 3 3 2 2 2 4 4 5 5 5 5 6 6 4 5
5 5 4 4 3 2 2 1 1 2 2 3 3 3 4 4 4 4 4 4 3 4 5 5 4 4 4 3 3 4 3 3 2 5 5 5 5 5 4 4 6 6 5
6 5 5 4 4 3 2 2 2 2 2 3 3 3 4 4 4 4 5 5 4 4 4 4 4 5 5 4 3 4 4 4 3 3 5 4 4 4 4 4 5 5 6
7 5 4 4 4 3 3 2 1 2 3 3 3 3 3 3 4 5 5 6 5 4 4 3 3 3 3 4 4 4 4 5 5 4 4 4 3 4 3 3 4 4 5
7 6 4 4 4 4 3 1 1 1 2 3 3 3 4 3 5 6 7 7 6 5 4 3 2 2 2 3 3 3 4 4 4 4 4 4 4 3 3 3 4 4 4
8 7 5 4 4 3 3 2 1 1 1 2 2 3 3 3 5 7 7 7 6 5 4 4 3 1 3 5 5 5 5 5 4 4 4 4 5 4 3 4 3 4 4
8 7 6 6 5 4 3 3 2 1 0 1 1 2 2 2 4 7 9 7 6 5 5 4 5 4 4 4 6 7 7 9 8 5 5 5 5 5 4 5 4 4 5
8 8 7 7 6 5 4 3 3 2 1 1 1 1 0 1 3 5 8 6 6 5 4 3 3 3 5 6 6 6 5 6 6 5 4 5 5 5 4 5 5 5 4
8 8 8 8 7 6 5 4 3 2 2 2 2 2 2 1 2 4 6 5 5 5 4 3 3 3 6 8 6 6 6 6 8 9 10 11 12 12 9 3 3 3 4
9 8 8 8 7 7 6 5 4 3 3 3 3 3 3 2 3 3 4 3 5 5 4 2 3 3 5 7 5 6 6 7 7 8 8 10 9 9 10 5 4 4 3
8 8 7 7 7 7 6 5 4 4 4 4 4 4 4 3 4 4 3 2 4 5 4 3 3 5 7 9 8 5 9 10 8 7 7 6 6 5 4 4 3 3 3
7 7 7 7 7 7 6 5 5 5 5 5 5 5 4 4 4 5 6 6 5 4 5 4 4 7 9 12 10 11 15 13 6 5 6 6 5 5 4 3 4 4 4
7 7 6 7 6 6 6 6 5 5 5 5 4 4 4 3 4 7 7 7 8 5 5 8 10 11 11 10 12 15 12 7 5 5 6 6 5 4 3 3 4 5 6
7 7 6 6 6 6 5 6 5 5 5 5 5 5 4 3 3 3 4 4 6 6 6 8 12 13 11 11 11 10 7 6 6 6 5 5 4 4 4 3 4 3 4
6 6 6 6 6 5 5 5 6 5 6 6 5 4 4 4 5 5 4 4 3 4 5 5 5 6 6 6 6 6 5 5 5 5 5 5 4 4 4 3 3 3 4
5 5 4 4 4 5 5 4 7 8 9 10 10 8 6 7 8 8 8 8 8 7 5 5 6 6 6 6 6 6 5 5 5 5 5 4 5 5 5 4 4 4 5
4 4 4 4 4 4 4 4 4 6 9 10 11 11 11 10 10 10 10 9 9 7 5 6 7 7 6 6 6 6 6 6 5 5 5 5 5 5 5 5 5 5 6
4 4 4 4 4 4 5 5 5 5 5 6 8 12 13 13 13 12 11 7 6 5 6 7 7 6 6 6 6 6 6 5 5 5 5 5 5 5 5 6 6 6 6
3 3 3 3 4 4 5 5 5 6 6 5 5 6 11 12 12 12 9 6 7 7 7 7 7 6 6 6 5 5 5 5 5 5 5 6 5 5 6 6 6 7 6
2 4 4 3 4 4 4 5 5 5 6 6 6 5 5 5 5 7 7 7 8 8 7 7 7 6 6 5 5 5 5 5 6 6 6 6 5 5 6 7 6 6 6
2 3 5 4 4 4 4 5 5 5 6 6 6 6 6 5 6 7 7 7 8 8 8 7 6 6 5 5 5 5 6 5 6 6 6 6 5 5 5 5 6 6 6
2 3 3 4 4 4 5 5 5 5 6 6 5 5 8 6 6 6 6 7 7 7 6 6 6 5 5 5 5 5 6 6 6 6 5 5 4 4 5 5 5 6 6
2 3 4 4 4 5 5 5 5 5 5 5 5 5 5 6 6 7 7 7 6 6 5 5 5 5 5 5 5 5 6 7 6 5 5 5 5 5 5 5 7 8 7
3 4 5 5 4 4 4 5 5 5 5 6 6 6 6 6 6 7 7 6 5 5 5 5 5 7 8 7 7 8 8 8 8 5 6 6 6 6 6 7 7 8 8
4 5 5 5 5 4 4 5 5 5 5 5 5 6 6 5 6 5 5 5 5 5 6 6 5 6 8 9 9 10 11 12 12 9 6 5 7 8 8 8 8 8 9
5 5 5 5 4 4 5 5 5 5 5 5 5 5 6 6 6 5 5 5 5 5 6 5 7 9 10 11 12 13 13 13 13 12 8 6 7 8 8 8 10 9 10
Wind_Direction
159 140 125 125 117 114 93 75 61 59 37 27 30 28 30 27 40 31 3 4 355 349 355 2 351 347 339 337 338 334 330 324 299 302 318 328 338 336 339 342 334 318 306
153 138 142 144 143 138 121 95 43 46 30 20 37 31 24 20 23 19 357 360 354 350 347 351 348 352 349 338 335 333 330 323 318 310 315 322 324 321 326 332 339 335 322
151 153 164 160 153 143 114 79 29 28 29 26 29 26 24 20 16 7 357 351 350 347 345 348 352 359 356 343 341 340 332 331 324 310 302 309 316 323 336 333 332 333 331
159 169 175 160 151 138 114 94 45 27 13 12 19 23 24 23 21 7 2 347 339 336 332 334 353 12 360 346 342 343 339 332 319 312 306 308 307 313 341 334 329 328 328
164 171 171 162 145 133 126 134 93 40 7 15 16 19 13 18 20 15 354 336 333 328 328 337 348 9 349 328 326 327 331 317 314 317 313 315 316 330 327 317 322 318 318
168 171 164 155 141 139 146 147 107 54 10 16 9 15 8 13 18 10 353 334 326 321 323 332 328 330 317 316 313 306 297 294 298 301 309 311 310 313 318 322 323 328 317
170 166 161 160 161 166 166 148 155 193 153 20 341 355 24 33 1 351 344 329 315 317 323 329 330 350 355 334 318 309 306 298 285 284 285 290 298 304 315 316 309 302 290
173 169 167 166 167 166 165 175 191 202 176 192 265 286 311 310 337 339 334 318 304 306 315 328 334 0 4 360 340 330 311 304 290 281 273 278 288 287 280 281 282 293 293
174 172 171 169 170 172 178 189 194 190 200 227 240 249 249 237 301 322 329 309 303 308 315 336 357 20 354 351 340 326 319 310 308 303 295 290 288 286 281 285 292 295 295
177 175 174 172 173 179 185 191 193 193 208 223 238 245 248 221 243 286 314 305 310 313 315 329 359 344 334 340 333 323 317 309 311 310 303 296 290 287 283 255 237 252 276
168 170 173 172 176 182 185 190 193 201 213 229 237 243 241 222 221 235 263 288 305 311 315 318 313 314 316 314 312 296 289 295 294 293 293 292 290 284 273 265 245 232 252
158 167 174 177 186 188 182 192 201 205 216 231 238 245 238 223 213 224 238 255 279 290 297 301 300 300 304 302 298 287 292 297 289 285 285 283 282 280 275 272 280 272 261
161 172 180 185 187 181 184 197 208 209 218 232 234 239 243 229 218 225 234 251 264 267 275 285 292 293 294 292 283 284 289 286 277 274 274 274 271 270 274 287 295 292 287
175 182 189 194 194 194 196 201 208 213 220 229 234 237 241 239 228 218 228 247 259 270 281 289 292 287 279 272 279 281 269 261 262 259 264 266 272 275 274 271 273 276 286
191 194 198 199 197 197 201 210 215 219 218 222 230 231 236 245 237 227 233 249 257 268 289 284 280 280 275 272 273 273 270 270 270 261 263 266 268 270 272 266 263 269 273
204 205 202 197 196 198 204 224 231 227 228 227 226 229 240 236 235 240 246 253 265 277 289 278 278 275 272 274 276 278 275 273 269 266 264 263 261 261 267 265 257 257 264
217 210 199 199 202 206 212 219 238 248 243 242 238 237 237 240 242 244 250 256 265 272 267 266 267 267 270 272 271 273 275 273 273 269 263 262 262 261 261 264 262 262 263
228 220 208 205 208 217 223 228 231 235 245 252 246 240 240 242 244 248 252 258 267 253 247 256 262 264 266 268 268 270 274 275 275 272 265 265 266 266 266 263 261 259 261
236 230 220 217 219 228 231 231 235 241 245 246 241 238 236 240 244 248 245 242 248 252 253 255 257 260 260 261 262 265 269 272 277 275 268 267 262 262 268 269 267 267 266
256 245 241 235 236 238 238 239 241 242 246 246 243 239 225 223 236 241 236 237 244 250 252 253 255 256 257 259 259 262 269 272 278 275 270 264 258 257 261 267 266 267 266
268 264 257 251 245 245 246 247 252 254 253 251 248 241 229 229 235 239 239 238 240 245 249 251 252 254 255 257 258 261 266 269 271 270 272 270 261 261 265 270 274 275 275
295 283 273 265 261 259 258 258 257 258 260 261 259 255 248 246 248 250 249 248 245 244 245 247 251 249 245 246 252 257 264 270 271 268 271 273 270 265 267 270 275 278 277
305 299 296 287 276 274 275 270 266 264 265 265 264 260 255 252 254 256 257 256 254 253 248 245 247 251 250 249 251 253 260 265 264 261 271 275 273 270 269 274 277 281 278
314 305 299 296 292 282 278 279 278 278 278 276 273 268 264 260 260 261 261 257 254 254 253 252 253 255 261 262 263 261 261 265 270 267 265 269 273 272 271 269 268 271 275
305 298 295 293 294 295 294 293 292 292 293 291 289 287 283 279 276 274 271 267 266 264 263 260 258 262 268 270 272 272 270 272 273 272 268 261 265 267 267 267 266 268 270
292 290 290 290 293 296 295 296 297 299 300 302 303 302 299 295 291 286 281 276 271 268 267 265 267 271 276 278 276 275 274 274 272 270 266 263 264 265 266 266 265 265 268
Height
1554 1555 1556 1557 1557 1558 1558 1558 1558 1558 1557 1557 1556 1555 1554 1553 1552 1550 1549 1548 1547 1546 1545 1544 1542 1541 1540 1539 1539 1538 1537 1537 1536 1535 1534 1533 1531 1530 1529 1528 1527 1526 1525
1552 1554 1554 1555 1556 1556 1556 1557 1557 1557 1556 1556 1555 1554 1553 1552 1551 1550 1549 1548 1547 1545 1544 1543 1541 1540 1539 1538 1537 1536 1536 1535 1535 1533 1531 1531 1530 1528 1527 1526 1525 1524 1522
1550 1551 1553 1554 1554 1555 1555 1555 1555 1555 1555 1555 1554 1553 1552 1551 1550 1549 1548 1547 1546 1544 1543 1542 1540 1539 1537 1537 1536 1535 1534 1533 1532 1531 1529 1529 1527 1526 1525 1524 1522 1521 1520
1548 1549 1551 1551 1552 1553 1553 1553 1553 1553 1553 1553 1552 1551 1550 1549 1548 1547 1546 1545 1544 1543 1542 1540 1539 1537 1536 1535 1534 1533 1532 1531 1530 1529 1527 1526 1525 1524 1523 1521 1519 1519 1518
1545 1546 1548 1549 1550 1550 1551 1551 1551 1551 1551 1551 1550 1549 1548 1547 1546 1545 1544 1543 1542 1541 1540 1539 1538 1536 1535 1534 1532 1531 1530 1529 1528 1526 1525 1524 1523 1522 1520 1519 1517 1516 1515
1542 1544 1545 1546 1547 1548 1548 1548 1549 1549 1549 1548 1548 1547 1546 1545 1544 1543 1542 1541 1540 1539 1538 1537 1536 1534 1533 1532 1530 1529 1528 1527 1525 1524 1523 1522 1520 1519 1518 1517 1515 1513 1511
1539 1541 1542 1543 1544 1545 1546 1546 1546 1546 1546 1546 1546 1545 1544 1543 1542 1541 1540 1539 1538 1537 1536 1535 1534 1532 1531 1530 1528 1527 1526 1524 1524 1522 1520 1519 1518 1517 1515 1514 1512 1511 1509
1536 1537 1539 1540 1541 1542 1543 1543 1543 1544 1543 1543 1543 1542 1542 1541 1540 1539 1538 1537 1536 1535 1534 1532 1531 1530 1528 1527 1525 1523 1522 1521 1520 1519 1518 1516 1515 1514 1512 1511 1509 1507 1506
1532 1534 1535 1536 1538 1539 1539 1540 1540 1540 1541 1541 1540 1540 1539 1538 1537 1537 1535 1534 1533 1532 1531 1530 1528 1527 1525 1524 1522 1520 1518 1517 1516 1515 1514 1512 1511 1510 1509 1507 1505 1504 1502
1528 1530 1532 1533 1534 1535 1536 1537 1537 1537 1537 1537 1537 1537 1536 1535 1535 1534 1533 1531 1530 1529 1528 1527 1525 1524 1522 1520 1519 1516 1514 1513 1511 1510 1509 1507 1506 1505 1504 1503 1502 1500 1498
1525 1527 1528 1529 1530 1531 1532 1533 1534 1534 1534 1534 1534 1534 1533 1533 1532 1531 1530 1528 1527 1525 1524 1523 1521 1520 1518 1517 1515 1513 1511 1509 1507 1505 1503 1502 1501 1500 1499 1499 1498 1497 1495
1522 1523 1524 1526 1527 1528 1528 1529 1530 1530 1530 1530 1530 1530 1530 1529 1528 1527 1526 1525 1523 1522 1520 1519 1517 1516 1514 1512 1510 1508 1506 1505 1502 1500 1499 1497 1496 1496 1495 1494 1493 1492 1491
1518 1520 1521 1522 1523 1524 1524 1525 1526 1526 1526 1526 1526 1526 1525 1525 1524 1523 1522 1521 1519 1518 1516 1514 1512 1511 1509 1507 1505 1503 1502 1500 1498 1496 1494 1492 1492 1491 1490 1489 1487 1486 1485
1515 1516 1517 1518 1519 1520 1520 1521 1521 1521 1521 1522 1522 1521 1521 1520 1519 1518 1517 1516 1514 1512 1511 1509 1507 1505 1503 1501 1500 1498 1496 1495 1493 1491 1489 1488 1487 1485 1484 1483 1482 1480 1479
1511 1512 1513 1514 1515 1515 1516 1516 1516 1517 1517 1517 1517 1517 1516 1515 1514 1514 1513 1511 1509 1508 1505 1503 1501 1499 1497 1496 1494 1493 1491 1490 1488 1486 1484 1482 1481 1480 1478 1478 1477 1475 1473
1507 1508 1509 1510 1510 1511 1511 1511 1511 1512 1512 1512 1512 1512 1510 1510 1509 1508 1507 1506 1504 1503 1500 1498 1496 1494 1492 1491 1489 1487 1486 1484 1483 1481 1479 1477 1475 1474 1473 1472 1471 1470 1468
1504 1504 1505 1506 1506 1506 1506 1506 1506 1506 1506 1506 1506 1505 1505 1504 1503 1502 1501 1500 1499 1497 1494 1492 1490 1488 1487 1485 1484 1482 1480 1479 1477 1475 1473 1471 1470 1469 1467 1466 1465 1463 1462
1500 1501 1501 1501 1501 1501 1501 1501 1501 1500 1500 1499 1499 1499 1498 1498 1497 1496 1495 1494 1491 1490 1488 1486 1484 1483 1481 1480 1478 1476 1474 1473 1471 1469 1467 1465 1464 1463 1461 1460 1459 1457 1456
1496 1496 1497 1497 1497 1497 1496 1496 1496 1495 1494 1493 1493 1492 1492 1491 1490 1489 1488 1486 1484 1483 1482 1480 1479 1477 1475 1474 1472 1470 1468 1466 1464 1462 1461 1459 1458 1456 1455 1453 1452 1451 1450
1492 1492 1492 1492 1492 1492 1491 1491 1490 1490 1488 1487 1486 1486 1485 1484 1482 1481 1481 1479 1477 1476 1475 1473 1472 1470 1469 1467 1466 1464 1462 1460 1458 1456 1454 1452 1451 1450 1448 1447 1446 1445 1443
1488 1488 1488 1488 1487 1487 1486 1486 1485 1484 1483 1482 1481 1480 1479 1478 1476 1475 1473 1472 1471 1469 1468 1467 1465 1464 1462 1461 1459 1457 1455 1453 1451 1449 1447 1446 1444 1443 1442 1440 1439 1438 1436
1483 1483 1483 1482 1482 1481 1481 1480 1479 1478 1477 1476 1474 1474 1473 1471 1469 1468 1466 1465 1464 1462 1461 1460 1458 1456 1455 1454 1452 1450 1448 1446 1444 1442 1441 1439 1438 1436 1435 1434 1432 1431 1429
1479 1479 1478 1478 1477 1476 1475 1474 1473 1472 1471 1470 1468 1467 1465 1464 1463 1461 1459 1458 1456 1455 1454 1452 1450 1449 1448 1446 1444 1443 1441 1439 1438 1436 1434 1432 1430 1429 1428 1426 1425 1423 1422
1475 1474 1473 1473 1472 1471 1470 1469 1467 1466 1465 1463 1462 1460 1459 1457 1455 1454 1452 1450 1449 1447 1446 1444 1443 1441 1440 1438 1437 1435 1434 1432 1430 1429 1427 1425 1423 1421 1420 1419 1417 1416 1414
1471 1470 1469 1468 1467 1465 1464 1463 1461 1460 1458 1457 1455 1453 1451 1449 1448 1446 1444 1443 1441 1439 1438 1436 1434 1433 1431 1430 1428 1427 1425 1424 1422 1421 1419 1417 1415 1413 1412 1411 1409 1408 1406
1466 1465 1464 1463 1462 1460 1459 1457 1455 1454 1452 1450 1448 1446 1444 1442 1440 1438 1437 1435 1433 1431 1430 1428 1426 1424 1423 1421 1419 1418 1417 1415 1414 1412 1411 1409 1407 1405 1404 1403 1401 1400 1398